User: anonymous   Login
Location: Goheenville
(40.9070°N, 79.3720°W)
Time: 12:09:08
(UTC-05:00)
Language:

Cosmos 1727 Rocket - Orbit

View from above orbital plane
View from above orbital plane
View from above satellite
View from above satellite

Ground track
Ground track

The orbit data is extracted from the following two-line orbital elements,

1 16511U 86008B   14330.73435240  .00000047  00000-0  32712-4 0  6240
2 16511 082.9447 192.1414 0024357 013.3824 052.3957 13.75776557447924
Epoch (UTC): 26 November 2014 17:37:28
Eccentricity: 0.0024357
inclination: 82.9447°
perigee height: 961 km
apogee height: 997 km
right ascension of ascending node: 192.1414°
argument of perigee: 13.3824°
revolutions per day: 13.75776557
mean anomaly at epoch: 52.3957°
orbit number at epoch: 44792

The dashed part of the orbit path shows where the satellite is in the earth's shadow,  

DLR